Latest Weather Observations for Wattamolla

IDN60801

Issued at 6:35 am EST Tuesday 2 September 2014 (issued every 30 minutes, with the page automatically refreshed every 10 minutes)

About weather observations | Map of weather stations | Latest weather observations for NSW | Other Formats
Station Details ID: 066208 Name: WATTAMOLLA AWS Lat: -34.14 Lon: 151.12 Height: 44.0 m
Data from the previous 72 hours. | See also: Recent months for locations in New South Wales
Date/Time
EST
Temp
°C
App
Temp
°C
Dew
Point
Rel
Hum
%
Delta-T
°C
Wind Press
QNH
hPa
Press
MSL
hPa
Rain
since 9 am
mm
Dir
 
Spd
km/h
Gust
km/h
Spd
kts
Gust
kts
02/06:30am - - - - - WNW 26 33 14 18 - - -
02/06:00am - - - - - WNW 26 35 14 19 - - -
02/05:30am - - - - - WNW 26 39 14 21 - - -
02/05:00am - - - - - W 28 39 15 21 - - -
02/04:30am - - - - - W 30 43 16 23 - - -
02/04:00am - - - - - W 24 39 13 21 - - -
02/03:30am - - - - - WNW 20 28 11 15 - - -
02/03:00am - - - - - NW 20 26 11 14 - - -
02/02:30am - - - - - NW 19 28 10 15 - - -
02/02:00am - - - - - NNW 15 19 8 10 - - -
02/01:30am - - - - - N 9 13 5 7 - - -
02/01:00am - - - - - N 9 11 5 6 - - -
02/12:30am - - - - - N 13 15 7 8 - - -
02/12:00am - - - - - N 13 15 7 8 - - -
 
Date/Time
EST
Temp
°C
App
Temp
°C
Dew
Point
Rel
Hum
%
Delta-T
°C
Wind Press
QNH
hPa
Press
MSL
hPa
Rain
since 9 am
mm
Dir
 
Spd
km/h
Gust
km/h
Spd
kts
Gust
kts
01/11:30pm - - - - - N 13 17 7 9 - - -
01/11:00pm - - - - - N 11 13 6 7 - - -
01/10:30pm - - - - - N 13 15 7 8 - - -
01/10:00pm - - - - - NNW 13 19 7 10 - - -
01/09:30pm - - - - - NW 15 19 8 10 - - -
01/09:00pm - - - - - NW 20 22 11 12 - - -
01/08:30pm - - - - - NW 19 20 10 11 - - -
01/08:00pm - - - - - NNW 15 17 8 9 - - -
01/07:30pm - - - - - NNW 13 15 7 8 - - -
01/07:00pm - - - - - N 15 19 8 10 - - -
01/06:30pm - - - - - N 19 22 10 12 - - -
01/06:00pm - - - - - N 17 22 9 12 - - -
01/05:30pm - - - - - N 17 20 9 11 - - -
01/05:00pm - - - - - NNE 17 24 9 13 - - -
01/04:30pm - - - - - NNE 15 22 8 12 - - -
01/04:00pm - - - - - NE 13 19 7 10 - - -
01/03:30pm - - - - - NE 15 22 8 12 - - -
01/03:00pm - - - - - NE 15 26 8 14 - - -
01/02:30pm - - - - - NE 15 24 8 13 - - -
01/02:00pm - - - - - N 13 20 7 11 - - -
01/01:30pm - - - - - N 19 26 10 14 - - -
01/01:00pm - - - - - NNE 11 19 6 10 - - -
01/12:30pm - - - - - NNW 13 26 7 14 - - -
01/12:00pm - - - - - N 13 22 7 12 - - -
01/11:30am - - - - - N 17 22 9 12 - - -
01/11:00am - - - - - N 15 20 8 11 - - -
01/10:30am - - - - - N 13 20 7 11 - - -
01/10:00am - - - - - NNW 15 22 8 12 - - -
01/09:30am - - - - - NNW 17 24 9 13 - - -
01/09:00am - - - - - NNW 17 24 9 13 - - -
01/08:30am - - - - - NW 19 24 10 13 - - -
01/08:00am - - - - - NW 20 28 11 15 - - -
01/07:30am - - - - - NW 19 28 10 15 - - -
01/07:00am - - - - - NW 19 26 10 14 - - -
01/06:30am - - - - - NNW 7 11 4 6 - - -
01/06:00am - - - - - N 7 7 4 4 - - -
01/05:30am - - - - - NNW 7 11 4 6 - - -
01/05:00am - - - - - N 6 11 3 6 - - -
01/04:30am - - - - - NW 9 15 5 8 - - -
01/04:00am - - - - - NNW 9 13 5 7 - - -
01/03:30am - - - - - NNW 11 13 6 7 - - -
01/03:00am - - - - - NNW 9 13 5 7 - - -
01/02:30am - - - - - N 11 13 6 7 - - -
01/02:00am - - - - - N 13 15 7 8 - - -
01/01:30am - - - - - N 11 13 6 7 - - -
01/01:00am - - - - - NNW 13 15 7 8 - - -
01/12:30am - - - - - NW 11 13 6 7 - - -
01/12:00am - - - - - NW 13 17 7 9 - - -
 
Date/Time
EST
Temp
°C
App
Temp
°C
Dew
Point
Rel
Hum
%
Delta-T
°C
Wind Press
QNH
hPa
Press
MSL
hPa
Rain
since 9 am
mm
Dir
 
Spd
km/h
Gust
km/h
Spd
kts
Gust
kts
31/11:30pm - - - - - NNW 13 17 7 9 - - -
31/11:00pm - - - - - NW 15 19 8 10 - - -
31/10:30pm - - - - - NW 17 20 9 11 - - -
31/10:00pm - - - - - NW 17 17 9 9 - - -
31/09:30pm - - - - - NW 13 15 7 8 - - -
31/09:00pm - - - - - NW 11 13 6 7 - - -
31/08:30pm - - - - - NW 9 11 5 6 - - -
31/08:00pm - - - - - NW 9 13 5 7 - - -
31/07:30pm - - - - - NNW 6 9 3 5 - - -
31/07:00pm - - - - - CALM 0 0 0 0 - - -
31/06:30pm - - - - - N 6 9 3 5 - - -
31/06:00pm - - - - - ESE 7 11 4 6 - - -
31/05:30pm - - - - - SE 11 15 6 8 - - -
31/05:00pm - - - - - SSE 13 17 7 9 - - -
31/04:30pm - - - - - SSE 15 19 8 10 - - -
31/04:00pm - - - - - S 15 19 8 10 - - -
31/03:30pm - - - - - S 17 19 9 10 - - -
31/03:00pm - - - - - SSE 17 19 9 10 - - -
31/02:30pm - - - - - SSE 15 19 8 10 - - -
31/02:00pm - - - - - SSE 15 19 8 10 - - -
31/01:30pm - - - - - S 17 19 9 10 - - -
31/01:00pm - - - - - SSE 17 20 9 11 - - -
31/12:30pm - - - - - S 19 24 10 13 - - -
31/12:00pm - - - - - S 19 20 10 11 - - -
31/11:30am - - - - - S 20 24 11 13 - - -
31/11:00am - - - - - S 20 22 11 12 - - -
31/10:30am - - - - - S 20 26 11 14 - - -
31/10:00am - - - - - S 20 26 11 14 - - -
31/09:30am - - - - - S 17 26 9 14 - - -
31/09:00am - - - - - S 13 19 7 10 - - -
31/08:30am - - - - - SSW 13 20 7 11 - - -
31/08:00am - - - - - S 11 17 6 9 - - -
31/07:30am - - - - - W 11 17 6 9 - - -
31/07:00am - - - - - W 13 15 7 8 - - -
31/06:30am - - - - - W 11 17 6 9 - - -
31/06:00am - - - - - W 11 15 6 8 - - -
31/05:30am - - - - - S 19 30 10 16 - - -
31/05:00am - - - - - S 24 32 13 17 - - -
31/04:30am - - - - - S 24 33 13 18 - - -
31/04:00am - - - - - S 22 33 12 18 - - -
31/03:30am - - - - - S 35 43 19 23 - - -
31/03:00am - - - - - S 33 44 18 24 - - -
31/02:30am - - - - - S 37 44 20 24 - - -
31/02:00am - - - - - S 35 48 19 26 - - -
31/01:30am - - - - - S 37 46 20 25 - - -
31/01:00am - - - - - S 35 46 19 25 - - -
31/12:30am - - - - - S 28 39 15 21 - - -
31/12:05am - - - - - S 32 50 17 27 - - -
31/12:00am - - - - - S 37 50 20 27 - - -
 
Date/Time
EST
Temp
°C
App
Temp
°C
Dew
Point
Rel
Hum
%
Delta-T
°C
Wind Press
QNH
hPa
Press
MSL
hPa
Rain
since 9 am
mm
Dir
 
Spd
km/h
Gust
km/h
Spd
kts
Gust
kts
30/11:30pm - - - - - S 43 54 23 29 - - -
30/11:00pm - - - - - S 43 56 23 30 - - -
30/10:30pm - - - - - S 52 63 28 34 - - -
30/10:00pm - - - - - S 43 54 23 29 - - -
30/09:30pm - - - - - S 44 56 24 30 - - -
30/09:14pm - - - - - S 37 59 20 32 - - -
30/09:00pm - - - - - S 43 59 23 32 - - -
30/08:30pm - - - - - S 48 61 26 33 - - -
30/08:00pm - - - - - S 44 57 24 31 - - -
30/07:30pm - - - - - S 46 61 25 33 - - -
30/07:05pm - - - - - S 33 54 18 29 - - -
30/07:00pm - - - - - - - - - - - - -
30/06:44pm - - - - - S 43 61 23 33 - - -
30/06:30pm - - - - - S 48 61 26 33 - - -
30/06:13pm - - - - - S 57 65 31 35 - - -
30/06:00pm - - - - - S 39 57 21 31 - - -
30/05:37pm - - - - - S 48 67 26 36 - - -
30/05:30pm - - - - - S 50 63 27 34 - - -
30/05:00pm - - - - - S 54 74 29 40 - - -
30/04:30pm - - - - - S 50 61 27 33 - - -
30/04:07pm - - - - - S 43 63 23 34 - - -
30/04:00pm - - - - - S 39 50 21 27 - - -
30/03:30pm - - - - - S 43 63 23 34 - - -
30/03:00pm - - - - - S 46 65 25 35 - - -
30/02:44pm - - - - - S 52 72 28 39 - - -
30/02:30pm - - - - - S 46 61 25 33 - - -
30/02:00pm - - - - - S 39 57 21 31 - - -
30/01:30pm - - - - - S 52 65 28 35 - - -
30/01:08pm - - - - - S 46 67 25 36 - - -
30/01:00pm - - - - - S 46 61 25 33 - - -
30/12:30pm - - - - - S 50 70 27 38 - - -
30/12:00pm - - - - - S 50 69 27 37 - - -
30/11:41am - - - - - S 61 80 33 43 - - -
30/11:30am - - - - - S 57 74 31 40 - - -
30/11:28am - - - - - S 56 74 30 40 - - -
30/11:00am - - - - - S 63 72 34 39 - - -
30/10:30am - - - - - S 63 76 34 41 - - -
30/10:00am - - - - - S 65 74 35 40 - - -
30/09:32am - - - - - S 61 80 33 43 - - -
30/09:30am - - - - - S 59 76 32 41 - - -
30/09:04am - - - - - S 59 78 32 42 - - -
30/09:00am - - - - - S 61 76 33 41 - - -
30/08:30am - - - - - S 63 82 34 44 - - -
30/08:00am - - - - - S 57 80 31 43 - - -
30/07:51am - - - - - S 57 80 31 43 - - -
30/07:30am - - - - - S 61 78 33 42 - - -
30/07:21am - - - - - S 59 78 32 42 - - -
30/07:00am - - - - - S 61 74 33 40 - - -

Other Formats:

Comma delimited format used in spreadsheet applications
http://www.bom.gov.au/fwo/IDN60801/IDN60801.95752.axf

JavaScript Object Notation format (JSON) in row-major order
http://www.bom.gov.au/fwo/IDN60801/IDN60801.95752.json